TimeCST,TemperatureF,Dew PointF,Humidity,Sea Level PressureIn,VisibilityMPH,Wind Direction,Wind SpeedMPH,Gust SpeedMPH,PrecipitationIn,Events,Conditions,WindDirDegrees,DateUTC
12:00 AM,-52,,,30.52,15,Calm,Calm,,,Snow,Snow,,2013-02-20 06:00:00
12:00 AM,-52.6,-9999,N/A,30.52,15.0,Calm,Calm,-,N/A,,Clear,0,2013-02-20 06:00:00
1:00 AM,-50.8,-9999,N/A,30.52,15.0,Calm,Calm,-,N/A,,Clear,0,2013-02-20 07:00:00
2:00 AM,-52.6,-9999,N/A,30.51,15.0,Calm,Calm,-,N/A,,Clear,0,2013-02-20 08:00:00
4:00 AM,-52.6,-9999,N/A,30.51,15.0,Calm,Calm,-,N/A,,Clear,0,2013-02-20 10:00:00
5:00 AM,-52.6,-9999,N/A,30.50,15.0,Calm,Calm,-,N/A,,Clear,0,2013-02-20 11:00:00
6:00 AM,-52,,,30.51,15,Calm,Calm,,,Snow,Snow,,2013-02-20 12:00:00
6:00 AM,-50.8,-9999,N/A,30.51,15.0,Calm,Calm,-,N/A,,Clear,0,2013-02-20 12:00:00
7:00 AM,-52.6,-9999,N/A,30.50,15.0,Calm,Calm,-,N/A,,Clear,0,2013-02-20 13:00:00
8:00 AM,-52.6,-9999,N/A,30.48,15.0,Calm,Calm,-,N/A,,Clear,0,2013-02-20 14:00:00
9:00 AM,-52.6,-9999,N/A,30.48,15.0,Calm,Calm,-,N/A,,Clear,0,2013-02-20 15:00:00
10:00 AM,-52.6,-9999,N/A,30.47,15.0,Calm,Calm,-,N/A,,Clear,0,2013-02-20 16:00:00
11:00 AM,-52.6,-9999,N/A,30.46,15.0,Calm,Calm,-,N/A,,Clear,0,2013-02-20 17:00:00
12:00 PM,-54,,,30.45,15,Calm,Calm,,,Snow,Snow,,2013-02-20 18:00:00
12:00 PM,-54.4,-9999,N/A,30.45,15.0,Calm,Calm,-,N/A,,Clear,0,2013-02-20 18:00:00
1:00 PM,-52.6,-9999,N/A,30.45,15.0,Calm,Calm,-,N/A,,Clear,0,2013-02-20 19:00:00
2:00 PM,-52.6,-9999,N/A,30.45,15.0,Calm,Calm,-,N/A,,Clear,0,2013-02-20 20:00:00
3:00 PM,-52.6,-9999,N/A,30.45,15.0,Calm,Calm,-,N/A,,Clear,0,2013-02-20 21:00:00
4:00 PM,-54.4,-9999,N/A,30.45,15.0,Calm,Calm,-,N/A,,Clear,0,2013-02-20 22:00:00
5:00 PM,-54.4,-9999,N/A,30.45,15.0,Calm,Calm,-,N/A,,Clear,0,2013-02-20 23:00:00
6:00 PM,-53,,,30.44,15,Calm,Calm,,,Snow,Snow,,2013-02-21 00:00:00
6:00 PM,-52.6,-9999,N/A,30.44,15.0,Calm,Calm,-,N/A,,Clear,0,2013-02-21 00:00:00
7:00 PM,-52.6,-9999,N/A,30.43,15.0,Calm,Calm,-,N/A,,Clear,0,2013-02-21 01:00:00
9:00 PM,-50.8,-9999,N/A,30.43,15.0,Calm,Calm,-,N/A,,Clear,0,2013-02-21 03:00:00